| time (UTC) | temp C | wind direction | speed KPH | gust KPH | rain 1hr cm | rain 24hr cm | rain mn cm | humidity % | barometer mb |
| 20260507033259 | 16 | 268 | 9.7 | 14.5 | 0.00 | 0.00 | 0.00 | 80 | 1016.6 |
| 20260507032744 | 16 | 235 | 8.0 | 14.5 | 0.00 | 0.00 | 0.00 | 81 | 1016.5 |
| 20260507032249 | 16 | 256 | 6.4 | 11.3 | 0.00 | 0.00 | 0.00 | 81 | 1016.5 |
| 20260507031751 | 16 | 242 | 6.4 | 16.1 | 0.00 | 0.00 | 0.00 | 80 | 1016.5 |
| 20260507031257 | 16 | 223 | 8.0 | 17.7 | 0.00 | 0.00 | 0.00 | 80 | 1016.3 |
| 20260507030821 | 16 | 277 | 6.4 | 22.5 | 0.00 | 0.00 | 0.00 | 79 | 1016.3 |
| 20260507030246 | 16 | 258 | 11.3 | 22.5 | 0.00 | 0.00 | 0.00 | 79 | 1016.3 |
| 20260507025751 | 16 | 269 | 8.0 | 17.7 | 0.00 | 0.00 | 0.00 | 79 | 1016.1 |
| 20260507025256 | 16 | 265 | 9.7 | 14.5 | 0.00 | 0.00 | 0.00 | 80 | 1016.1 |
| 20260507024829 | 16 | 296 | 6.4 | 17.7 | 0.00 | 0.00 | 0.00 | 80 | 1016.1 |
| 20260507024247 | 16 | 281 | 8.0 | 17.7 | 0.00 | 0.00 | 0.00 | 79 | 1016.1 |
| 20260507023817 | 16 | 266 | 8.0 | 20.9 | 0.00 | 0.00 | 0.00 | 79 | 1016.1 |
| 20260507023301 | 16 | 263 | 8.0 | 20.9 | 0.00 | 0.00 | 0.00 | 79 | 1016.1 |
| 20260507022807 | 16 | 267 | 9.7 | 16.1 | 0.00 | 0.00 | 0.00 | 77 | 1016.0 |
| 20260507022243 | 16 | 235 | 8.0 | 14.5 | 0.00 | 0.00 | 0.00 | 77 | 1016.0 |
| 20260507021810 | 17 | 249 | 6.4 | 12.9 | 0.00 | 0.00 | 0.00 | 76 | 1016.0 |
| 20260507021253 | 17 | 315 | 6.4 | 14.5 | 0.00 | 0.00 | 0.00 | 75 | 1015.9 |
| 20260507020757 | 17 | 305 | 6.4 | 14.5 | 0.00 | 0.00 | 0.00 | 74 | 1015.9 |
| 20260507020244 | 17 | 238 | 4.8 | 16.1 | 0.00 | 0.00 | 0.00 | 75 | 1015.9 |
| 20260507015752 | 17 | 248 | 9.7 | 16.1 | 0.00 | 0.00 | 0.00 | 73 | 1015.9 |
| 20260507015255 | 17 | 217 | 4.8 | 20.9 | 0.00 | 0.00 | 0.00 | 75 | 1015.9 |
| 20260507014758 | 17 | 263 | 11.3 | 20.9 | 0.00 | 0.00 | 0.00 | 74 | 1015.9 |
| 20260507014323 | 17 | 290 | 9.7 | 20.9 | 0.00 | 0.00 | 0.00 | 76 | 1015.9 |
| 20260507013746 | 17 | 269 | 9.7 | 20.9 | 0.00 | 0.00 | 0.00 | 74 | 1015.9 |
| 20260507013319 | 17 | 237 | 9.7 | 20.9 | 0.00 | 0.00 | 0.00 | 74 | 1015.9 |
| 20260507012803 | 17 | 321 | 8.0 | 20.9 | 0.00 | 0.00 | 0.00 | 74 | 1015.8 |
| 20260507012247 | 18 | 242 | 9.7 | 16.1 | 0.00 | 0.00 | 0.00 | 73 | 1015.8 |
| 20260507011753 | 18 | 279 | 8.0 | 20.9 | 0.00 | 0.00 | 0.00 | 74 | 1015.8 |
| 20260507011256 | 17 | 254 | 12.9 | 22.5 | 0.00 | 0.00 | 0.00 | 74 | 1015.8 |
| 20260507010801 | 17 | 259 | 12.9 | 22.5 | 0.00 | 0.00 | 0.00 | 74 | 1015.8 |
| 20260507010249 | 18 | 265 | 9.7 | 19.3 | 0.00 | 0.00 | 0.00 | 73 | 1015.8 |
| 20260507005755 | 18 | 249 | 8.0 | 22.5 | 0.00 | 0.00 | 0.00 | 73 | 1015.6 |
| 20260507005259 | 18 | 241 | 11.3 | 20.9 | 0.00 | 0.00 | 0.00 | 73 | 1015.6 |
| 20260507004802 | 18 | 245 | 9.7 | 20.9 | 0.00 | 0.00 | 0.00 | 73 | 1015.6 |
| 20260507004246 | 18 | 281 | 11.3 | 20.9 | 0.00 | 0.00 | 0.00 | 73 | 1015.9 |
| 20260507003752 | 18 | 245 | 11.3 | 20.9 | 0.00 | 0.00 | 0.00 | 72 | 1015.9 |
| 20260507003255 | 18 | 275 | 12.9 | 22.5 | 0.00 | 0.00 | 0.00 | 72 | 1015.9 |
| 20260507002814 | 18 | 286 | 12.9 | 19.3 | 0.00 | 0.00 | 0.00 | 72 | 1016.0 |
| 20260507002252 | 18 | 248 | 9.7 | 19.3 | 0.00 | 0.00 | 0.00 | 72 | 1016.0 |
| 20260507001750 | 18 | 234 | 8.0 | 17.7 | 0.00 | 0.00 | 0.00 | 72 | 1016.0 |
| 20260507001255 | 18 | 290 | 8.0 | 17.7 | 0.00 | 0.00 | 0.00 | 72 | 1015.7 |
| 20260507000759 | 18 | 259 | 8.0 | 19.3 | 0.00 | 0.00 | 0.00 | 72 | 1015.7 |
| 20260507000314 | 18 | 258 | 11.3 | 24.1 | 0.00 | 0.00 | 0.00 | 72 | 1015.7 |
| 20260506235753 | 18 | 228 | 11.3 | 24.1 | 0.00 | 0.00 | 0.00 | 72 | 1015.8 |
| 20260506235258 | 18 | 227 | 11.3 | 20.9 | 0.00 | 0.00 | 0.00 | 72 | 1015.8 |
| 20260506234802 | 18 | 238 | 11.3 | 22.5 | 0.00 | 0.00 | 0.00 | 72 | 1015.8 |
| 20260506234306 | 18 | 246 | 11.3 | 22.5 | 0.00 | 0.00 | 0.00 | 72 | 1015.9 |
| 20260506233743 | 18 | 250 | 9.7 | 19.3 | 0.00 | 0.00 | 0.00 | 70 | 1015.9 |
| 20260506233247 | 18 | 234 | 6.4 | 19.3 | 0.00 | 0.00 | 0.00 | 69 | 1015.9 |
| 20260506232818 | 18 | 321 | 9.7 | 27.4 | 0.00 | 0.00 | 0.00 | 69 | 1015.9 |
| 20260506232258 | 18 | 261 | 12.9 | 27.4 | 0.00 | 0.00 | 0.00 | 69 | 1015.9 |
| 20260506231801 | 18 | 227 | 9.7 | 25.7 | 0.00 | 0.00 | 0.00 | 69 | 1015.9 |
| 20260506231244 | 18 | 192 | 14.5 | 20.9 | 0.00 | 0.00 | 0.00 | 69 | 1016.1 |
| 20260506230747 | 19 | 256 | 9.7 | 20.9 | 0.00 | 0.00 | 0.00 | 68 | 1016.1 |
| 20260506230249 | 19 | 250 | 11.3 | 20.9 | 0.00 | 0.00 | 0.00 | 68 | 1016.1 |
| 20260506225753 | 19 | 263 | 11.3 | 20.9 | 0.00 | 0.00 | 0.00 | 68 | 1016.1 |
| 20260506225256 | 19 | 265 | 9.7 | 20.9 | 0.00 | 0.00 | 0.00 | 68 | 1016.1 |
| 20260506224809 | 19 | 269 | 11.3 | 20.9 | 0.00 | 0.00 | 0.00 | 68 | 1016.1 |
| 20260506224247 | 18 | 298 | 11.3 | 22.5 | 0.00 | 0.00 | 0.00 | 69 | 1016.3 |
| 20260506223817 | 18 | 242 | 11.3 | 22.5 | 0.00 | 0.00 | 0.00 | 69 | 1016.3 |
| 20260506223255 | 18 | 248 | 12.9 | 22.5 | 0.00 | 0.00 | 0.00 | 69 | 1016.3 |
| 20260506222759 | 19 | 269 | 11.3 | 22.5 | 0.00 | 0.00 | 0.00 | 68 | 1016.5 |
| 20260506222306 | 18 | 223 | 12.9 | 24.1 | 0.00 | 0.00 | 0.00 | 68 | 1016.5 |
| 20260506221751 | 19 | 233 | 11.3 | 24.1 | 0.00 | 0.00 | 0.00 | 68 | 1016.5 |
| 20260506221317 | 19 | 238 | 9.7 | 20.9 | 0.00 | 0.00 | 0.00 | 68 | 1016.7 |
| 20260506220827 | 19 | 281 | 9.7 | 20.9 | 0.00 | 0.00 | 0.00 | 68 | 1016.7 |
| 20260506220246 | 19 | 279 | 12.9 | 22.5 | 0.00 | 0.00 | 0.00 | 67 | 1016.7 |
| 20260506215751 | 18 | 313 | 8.0 | 22.5 | 0.00 | 0.00 | 0.00 | 70 | 1017.0 |
| 20260506215306 | 18 | 238 | 14.5 | 25.7 | 0.00 | 0.00 | 0.00 | 69 | 1017.0 |
| 20260506214744 | 19 | 257 | 12.9 | 25.7 | 0.00 | 0.00 | 0.00 | 68 | 1017.0 |
| 20260506214257 | 19 | 248 | 9.7 | 20.9 | 0.00 | 0.00 | 0.00 | 68 | 1017.1 |
| 20260506213756 | 19 | 297 | 11.3 | 20.9 | 0.00 | 0.00 | 0.00 | 66 | 1017.1 |
| 20260506213249 | 19 | 241 | 11.3 | 19.3 | 0.00 | 0.00 | 0.00 | 67 | 1017.1 |
| 20260506212750 | 19 | 229 | 8.0 | 19.3 | 0.00 | 0.00 | 0.00 | 68 | 1017.1 |
| 20260506212258 | 19 | 238 | 11.3 | 25.7 | 0.00 | 0.00 | 0.00 | 68 | 1017.1 |
| 20260506211744 | 18 | 224 | 9.7 | 25.7 | 0.00 | 0.00 | 0.00 | 69 | 1017.1 |
| 20260506211248 | 18 | 238 | 14.5 | 24.1 | 0.00 | 0.00 | 0.00 | 69 | 1017.1 |
| 20260506210814 | 18 | 246 | 12.9 | 20.9 | 0.00 | 0.00 | 0.00 | 65 | 1017.1 |
| 20260506210258 | 18 | 217 | 12.9 | 22.5 | 0.00 | 0.00 | 0.00 | 68 | 1017.1 |
| 20260506205803 | 18 | 291 | 12.9 | 22.5 | 0.00 | 0.00 | 0.00 | 67 | 1017.2 |
| 20260506205248 | 19 | 322 | 11.3 | 17.7 | 0.00 | 0.00 | 0.00 | 63 | 1017.2 |
| 20260506204753 | 19 | 233 | 9.7 | 20.9 | 0.00 | 0.00 | 0.00 | 66 | 1017.2 |
| 20260506204257 | 19 | 241 | 11.3 | 17.7 | 0.00 | 0.00 | 0.00 | 63 | 1017.3 |
| 20260506203802 | 20 | 207 | 9.7 | 17.7 | 0.00 | 0.00 | 0.00 | 64 | 1017.3 |
| 20260506203245 | 19 | 225 | 9.7 | 19.3 | 0.00 | 0.00 | 0.00 | 66 | 1017.3 |
| 20260506202751 | 19 | 235 | 12.9 | 19.3 | 0.00 | 0.00 | 0.00 | 63 | 1017.4 |
| 20260506202316 | 19 | 285 | 8.0 | 20.9 | 0.00 | 0.00 | 0.00 | 65 | 1017.4 |
| 20260506201809 | 19 | 243 | 9.7 | 17.7 | 0.00 | 0.00 | 0.00 | 61 | 1017.4 |
| 20260506201308 | 19 | 232 | 6.4 | 20.9 | 0.00 | 0.00 | 0.00 | 63 | 1017.6 |
| 20260506200747 | 19 | 264 | 8.0 | 20.9 | 0.00 | 0.00 | 0.00 | 62 | 1017.6 |
| 20260506200248 | 19 | 209 | 9.7 | 17.7 | 0.00 | 0.00 | 0.00 | 62 | 1017.6 |
| 20260506195823 | 19 | 277 | 9.7 | 17.7 | 0.00 | 0.00 | 0.00 | 63 | 1017.6 |
| 20260506195306 | 19 | 263 | 11.3 | 17.7 | 0.00 | 0.00 | 0.00 | 64 | 1017.6 |
| 20260506194810 | 19 | 267 | 11.3 | 17.7 | 0.00 | 0.00 | 0.00 | 62 | 1017.6 |
| 20260506194245 | 19 | 202 | 11.3 | 19.3 | 0.00 | 0.00 | 0.00 | 63 | 1017.7 |
| 20260506193751 | 19 | 260 | 11.3 | 19.3 | 0.00 | 0.00 | 0.00 | 62 | 1017.7 |
| 20260506193256 | 19 | 257 | 12.9 | 20.9 | 0.00 | 0.00 | 0.00 | 63 | 1017.7 |
| 20260506192808 | 19 | 216 | 11.3 | 20.9 | 0.00 | 0.00 | 0.00 | 63 | 1018.1 |
| 20260506192246 | 19 | 257 | 9.7 | 17.7 | 0.00 | 0.00 | 0.00 | 64 | 1018.1 |
| 20260506191751 | 19 | 288 | 11.3 | 17.7 | 0.00 | 0.00 | 0.00 | 64 | 1018.1 |
| 20260506191259 | 19 | 301 | 9.7 | 17.7 | 0.00 | 0.00 | 0.00 | 66 | 1018.1 |
| 20260506190743 | 19 | 198 | 6.4 | 17.7 | 0.00 | 0.00 | 0.00 | 66 | 1018.1 |
| 20260506190247 | 19 | 263 | 11.3 | 17.7 | 0.00 | 0.00 | 0.00 | 66 | 1018.1 |
| 20260506185751 | 18 | 230 | 9.7 | 17.7 | 0.00 | 0.00 | 0.00 | 65 | 1018.2 |
| 20260506185256 | 18 | 228 | 11.3 | 17.7 | 0.00 | 0.00 | 0.00 | 66 | 1018.2 |
| 20260506184801 | 19 | 243 | 8.0 | 14.5 | 0.00 | 0.00 | 0.00 | 66 | 1018.2 |
| 20260506184246 | 19 | 250 | 8.0 | 17.7 | 0.00 | 0.00 | 0.00 | 65 | 1018.2 |
| 20260506183748 | 19 | 257 | 8.0 | 16.1 | 0.00 | 0.00 | 0.00 | 66 | 1018.2 |
| 20260506183251 | 18 | 262 | 9.7 | 19.3 | 0.00 | 0.00 | 0.00 | 66 | 1018.2 |
| 20260506182750 | 19 | 250 | 8.0 | 19.3 | 0.00 | 0.00 | 0.00 | 65 | 1018.2 |
| 20260506182256 | 19 | 218 | 6.4 | 14.5 | 0.00 | 0.00 | 0.00 | 65 | 1018.2 |
| 20260506181800 | 19 | 230 | 8.0 | 14.5 | 0.00 | 0.00 | 0.00 | 66 | 1018.2 |
| 20260506181246 | 18 | 269 | 8.0 | 14.5 | 0.00 | 0.00 | 0.00 | 67 | 1018.2 |
| 20260506180746 | 18 | 229 | 8.0 | 16.1 | 0.00 | 0.00 | 0.00 | 67 | 1018.2 |
| 20260506180252 | 18 | 238 | 9.7 | 16.1 | 0.00 | 0.00 | 0.00 | 66 | 1018.2 |
| 20260506175756 | 19 | 269 | 6.4 | 12.9 | 0.00 | 0.00 | 0.00 | 66 | 1018.2 |
| 20260506175305 | 19 | 235 | 8.0 | 12.9 | 0.00 | 0.00 | 0.00 | 67 | 1018.2 |
| 20260506174746 | 18 | 250 | 9.7 | 14.5 | 0.00 | 0.00 | 0.00 | 66 | 1018.2 |
| 20260506174309 | 18 | 262 | 9.7 | 14.5 | 0.00 | 0.00 | 0.00 | 66 | 1018.2 |
| 20260506173821 | 19 | 235 | 8.0 | 12.9 | 0.00 | 0.00 | 0.00 | 65 | 1018.2 |
| 20260506173304 | 19 | 238 | 6.4 | 12.9 | 0.00 | 0.00 | 0.00 | 65 | 1018.2 |
| 20260506172808 | 20 | 241 | 6.4 | 12.9 | 0.00 | 0.00 | 0.00 | 64 | 1018.2 |
| 20260506172253 | 19 | 255 | 4.8 | 12.9 | 0.00 | 0.00 | 0.00 | 65 | 1018.2 |
| 20260506171817 | 19 | 232 | 8.0 | 12.9 | 0.00 | 0.00 | 0.00 | 63 | 1018.2 |
| 20260506171302 | 19 | 294 | 4.8 | 11.3 | 0.00 | 0.00 | 0.00 | 64 | 1018.1 |
| 20260506170744 | 19 | 159 | 8.0 | 11.3 | 0.00 | 0.00 | 0.00 | 63 | 1018.1 |
| 20260506170245 | 20 | 173 | 3.2 | 6.4 | 0.00 | 0.00 | 0.00 | 62 | 1018.1 |
| 20260506165806 | 19 | 9 | 3.2 | 6.4 | 0.00 | 0.00 | 0.00 | 62 | 1018.1 |
| 20260506165253 | 19 | 100 | 1.6 | 8.0 | 0.00 | 0.00 | 0.00 | 63 | 1018.1 |
| 20260506164757 | 19 | 192 | 3.2 | 8.0 | 0.00 | 0.00 | 0.00 | 62 | 1018.1 |
| 20260506164301 | 20 | 159 | 3.2 | 6.4 | 0.00 | 0.00 | 0.00 | 61 | 1018.1 |
| 20260506163746 | 19 | 86 | 3.2 | 4.8 | 0.00 | 0.00 | 0.00 | 63 | 1018.1 |
| 20260506163251 | 18 | 262 | 0.0 | 4.8 | 0.00 | 0.00 | 0.00 | 64 | 1018.1 |
| 20260506162756 | 18 | 221 | 1.6 | 4.8 | 0.00 | 0.00 | 0.00 | 62 | 1018.1 |
| 20260506162307 | 18 | 149 | 1.6 | 9.7 | 0.00 | 0.00 | 0.00 | 64 | 1018.1 |
| 20260506161744 | 18 | 90 | 4.8 | 8.0 | 0.00 | 0.00 | 0.00 | 64 | 1018.1 |
| 20260506161252 | 18 | 213 | 1.6 | 6.4 | 0.00 | 0.00 | 0.00 | 67 | 1018.1 |
| 20260506160753 | 18 | 176 | 3.2 | 8.0 | 0.00 | 0.00 | 0.00 | 67 | 1018.1 |
| 20260506160259 | 18 | 360 | 3.2 | 8.0 | 0.00 | 0.00 | 0.00 | 67 | 1018.1 |
| 20260506155743 | 18 | 59 | 3.2 | 6.4 | 0.00 | 0.00 | 0.00 | 69 | 1018.1 |
| 20260506155246 | 17 | 39 | 1.6 | 6.4 | 0.00 | 0.00 | 0.00 | 70 | 1018.1 |
| 20260506154752 | 17 | 138 | 3.2 | 6.4 | 0.00 | 0.00 | 0.00 | 71 | 1018.1 |
| 20260506154257 | 17 | 211 | 1.6 | 8.0 | 0.00 | 0.00 | 0.00 | 72 | 1018.1 |
| 20260506153803 | 17 | 137 | 4.8 | 9.7 | 0.00 | 0.00 | 0.00 | 73 | 1018.1 |
| 20260506153244 | 17 | 119 | 3.2 | 8.0 | 0.00 | 0.00 | 0.00 | 73 | 1018.1 |
| 20260506152748 | 17 | 171 | 3.2 | 6.4 | 0.00 | 0.00 | 0.00 | 73 | 1018.2 |
| 20260506152251 | 17 | 84 | 3.2 | 6.4 | 0.00 | 0.00 | 0.00 | 73 | 1018.2 |
| 20260506151759 | 17 | 87 | 3.2 | 6.4 | 0.00 | 0.00 | 0.00 | 73 | 1018.2 |
| 20260506151243 | 16 | 190 | 1.6 | 4.8 | 0.00 | 0.00 | 0.00 | 73 | 1018.2 |
| 20260506150818 | 16 | 84 | 3.2 | 4.8 | 0.00 | 0.00 | 0.00 | 73 | 1018.2 |
| 20260506150304 | 16 | 45 | 0.0 | 4.8 | 0.00 | 0.00 | 0.00 | 75 | 1018.2 |
| 20260506145804 | 16 | 29 | 1.6 | 4.8 | 0.00 | 0.00 | 0.00 | 76 | 1018.2 |
| 20260506145244 | 16 | 136 | 3.2 | 4.8 | 0.00 | 0.00 | 0.00 | 76 | 1018.2 |
| 20260506144747 | 16 | 63 | 3.2 | 8.0 | 0.00 | 0.00 | 0.00 | 76 | 1018.2 |
| 20260506144251 | 16 | 97 | 4.8 | 8.0 | 0.00 | 0.00 | 0.00 | 76 | 1018.1 |
| 20260506143750 | 16 | 76 | 1.6 | 3.2 | 0.00 | 0.00 | 0.00 | 78 | 1018.1 |
| 20260506143322 | 15 | 76 | 0.0 | 4.8 | 0.00 | 0.00 | 0.00 | 78 | 1018.1 |
| 20260506142804 | 15 | 85 | 3.2 | 4.8 | 0.00 | 0.00 | 0.00 | 78 | 1017.9 |
| 20260506142308 | 15 | 84 | 1.6 | 8.0 | 0.00 | 0.00 | 0.00 | 79 | 1017.9 |
| 20260506141746 | 15 | 109 | 4.8 | 8.0 | 0.00 | 0.00 | 0.00 | 79 | 1017.9 |
| 20260506141256 | 15 | 94 | 1.6 | 3.2 | 0.00 | 0.00 | 0.00 | 80 | 1017.7 |
| 20260506140801 | 14 | 62 | 1.6 | 1.6 | 0.00 | 0.00 | 0.00 | 81 | 1017.7 |
| 20260506140247 | 14 | 43 | 0.0 | 3.2 | 0.00 | 0.00 | 0.00 | 83 | 1017.7 |
| 20260506135750 | 13 | 38 | 0.0 | 6.4 | 0.00 | 0.00 | 0.00 | 83 | 1017.7 |
| 20260506135255 | 13 | 47 | 3.2 | 6.4 | 0.00 | 0.00 | 0.00 | 84 | 1017.7 |
| 20260506134800 | 13 | 34 | 0.0 | 3.2 | 0.00 | 0.00 | 0.00 | 85 | 1017.7 |
| 20260506134246 | 12 | 32 | 0.0 | 3.2 | 0.00 | 0.00 | 0.00 | 86 | 1017.7 |
| 20260506133751 | 12 | 19 | 526.3 | 1.6 | 0.00 | 0.00 | 0.00 | 86 | 1017.7 |
| 20260506133256 | -17 | 0.0 | 0.0 | 0.00 | 0.00 | 0.00 | 1017.7 | ||
| 20260506132758 | -17 | 0.0 | 0.0 | 0.00 | 0.00 | 0.00 | 1017.5 | ||
| 20260506132300 | -17 | 0.0 | 0.0 | 0.00 | 0.00 | 0.00 | 1017.5 | ||
| 20260506131812 | -17 | 0.0 | 0.0 | 0.00 | 0.00 | 0.00 | 1017.5 | ||
| 20260506131244 | -17 | 0.0 | 0.0 | 0.00 | 0.00 | 0.00 | 1017.2 | ||
| 20260506130748 | -17 | 0.0 | 0.0 | 0.00 | 0.00 | 0.00 | 1017.2 | ||
| 20260506130253 | -17 | 0.0 | 0.0 | 0.00 | 0.00 | 0.00 | 1017.2 | ||
| 20260506125755 | -17 | 0.0 | 0.0 | 0.00 | 0.00 | 0.00 | 1017.1 | ||
| 20260506125258 | -17 | 0.0 | 0.0 | 0.00 | 0.00 | 0.00 | 1017.1 | ||
| 20260506124743 | -17 | 0.0 | 0.0 | 0.00 | 0.00 | 0.00 | 1017.1 | ||
| 20260506124248 | -17 | 0.0 | 0.0 | 0.00 | 0.00 | 0.00 | 1017.1 | ||
| 20260506123751 | -17 | 0.0 | 0.0 | 0.00 | 0.00 | 0.00 | 1017.1 | ||
| 20260506123307 | -17 | 0.0 | 0.0 | 0.00 | 0.00 | 0.00 | 1017.1 | ||
| 20260506122743 | -17 | 0.0 | 0.0 | 0.00 | 0.00 | 0.00 | 1017.1 | ||
| 20260506122246 | -17 | 0.0 | 0.0 | 0.00 | 0.00 | 0.00 | 1017.1 | ||
| 20260506121747 | -17 | 0.0 | 0.0 | 0.00 | 0.00 | 0.00 | 1017.1 | ||
| 20260506121310 | -17 | 0.0 | 0.0 | 0.00 | 0.00 | 0.00 | 1017.1 | ||
| 20260506120755 | -17 | 0.0 | 0.0 | 0.00 | 0.00 | 0.00 | 1017.1 | ||
| 20260506120256 | -17 | 0.0 | 0.0 | 0.00 | 0.00 | 0.00 | 1017.1 | ||
| 20260506115801 | -17 | 0.0 | 0.0 | 0.00 | 0.00 | 0.00 | 1016.9 | ||
| 20260506115307 | -17 | 0.0 | 0.0 | 0.00 | 0.00 | 0.00 | 1016.9 | ||
| 20260506114749 | -17 | 0.0 | 0.0 | 0.00 | 0.00 | 0.00 | 1016.9 | ||
| 20260506114314 | -17 | 0.0 | 0.0 | 0.00 | 0.00 | 0.00 | 1016.9 | ||
| 20260506113756 | -17 | 0.0 | 0.0 | 0.00 | 0.00 | 0.00 | 1016.9 | ||
| 20260506112755 | -17 | 351 | 0.0 | 0.0 | 0.00 | 0.00 | 0.00 | 1016.7 | |
| 20260506112256 | 12 | 355 | 0.0 | 0.0 | 0.00 | 0.00 | 0.00 | 86 | 1016.7 |
| 20260506111801 | 12 | 355 | 0.0 | 0.0 | 0.00 | 0.00 | 0.00 | 86 | 1016.7 |
| 20260506111245 | 12 | 351 | 0.0 | 0.0 | 0.00 | 0.00 | 0.00 | 86 | 1016.7 |
| 20260506110749 | 12 | 351 | 0.0 | 0.0 | 0.00 | 0.00 | 0.00 | 86 | 1016.7 |
| 20260506110255 | 12 | 351 | 0.0 | 0.0 | 0.00 | 0.00 | 0.00 | 86 | 1016.7 |
| 20260506105757 | 12 | 351 | 0.0 | 0.0 | 0.00 | 0.00 | 0.00 | 86 | 1016.7 |
| 20260506105308 | 12 | 351 | 0.0 | 3.2 | 0.00 | 0.00 | 0.00 | 86 | 1016.7 |
| 20260506104744 | 12 | 351 | 0.0 | 3.2 | 0.00 | 0.00 | 0.00 | 86 | 1016.7 |
| 20260506104249 | 12 | 350 | 0.0 | 0.0 | 0.00 | 0.00 | 0.00 | 87 | 1016.7 |
| 20260506103801 | 12 | 350 | 0.0 | 0.0 | 0.00 | 0.00 | 0.00 | 87 | 1016.7 |
| 20260506103259 | 12 | 350 | 0.0 | 0.0 | 0.00 | 0.00 | 0.00 | 86 | 1016.7 |
| 20260506102746 | 12 | 350 | 0.0 | 0.0 | 0.00 | 0.00 | 0.00 | 87 | 1016.7 |
| 20260506102254 | 12 | 350 | 0.0 | 0.0 | 0.00 | 0.00 | 0.00 | 87 | 1016.7 |
| 20260506101757 | 12 | 350 | 0.0 | 1.6 | 0.00 | 0.00 | 0.00 | 86 | 1016.7 |
| 20260506101259 | 12 | 350 | 0.0 | 1.6 | 0.00 | 0.00 | 0.00 | 86 | 1016.8 |
| 20260506100804 | 12 | 350 | 0.0 | 1.6 | 0.00 | 0.00 | 0.00 | 86 | 1016.8 |
| 20260506100308 | 12 | 286 | 0.0 | 0.0 | 0.00 | 0.00 | 0.00 | 86 | 1016.8 |
| 20260506095744 | 12 | 286 | 0.0 | 0.0 | 0.00 | 0.00 | 0.00 | 85 | 1016.8 |
| 20260506095246 | 13 | 286 | 0.0 | 0.0 | 0.00 | 0.00 | 0.00 | 85 | 1016.8 |
| 20260506094748 | 13 | 286 | 0.0 | 0.0 | 0.00 | 0.00 | 0.00 | 85 | 1016.8 |
| 20260506094259 | 13 | 286 | 0.0 | 0.0 | 0.00 | 0.00 | 0.00 | 86 | 1016.8 |
| 20260506093744 | 13 | 286 | 0.0 | 0.0 | 0.00 | 0.00 | 0.00 | 84 | 1016.8 |
| 20260506093308 | 13 | 286 | 0.0 | 0.0 | 0.00 | 0.00 | 0.00 | 84 | 1016.8 |
| 20260506092750 | 13 | 286 | 0.0 | 0.0 | 0.00 | 0.00 | 0.00 | 84 | 1017.0 |
| 20260506092255 | 13 | 286 | 0.0 | 0.0 | 0.00 | 0.00 | 0.00 | 84 | 1017.0 |
| 20260506091801 | 13 | 286 | 0.0 | 0.0 | 0.00 | 0.00 | 0.00 | 84 | 1017.0 |
| 20260506091308 | 13 | 286 | 0.0 | 1.6 | 0.00 | 0.00 | 0.00 | 83 | 1017.1 |
| 20260506090755 | 13 | 286 | 0.0 | 3.2 | 0.00 | 0.00 | 0.00 | 83 | 1017.1 |
| 20260506090303 | 13 | 286 | 0.0 | 3.2 | 0.00 | 0.00 | 0.00 | 84 | 1017.1 |
| 20260506085807 | 13 | 284 | 0.0 | 3.2 | 0.00 | 0.00 | 0.00 | 83 | 1017.1 |
| 20260506085311 | 13 | 234 | 0.0 | 1.6 | 0.00 | 0.00 | 0.00 | 82 | 1017.1 |
| 20260506084755 | 14 | 234 | 1.6 | 3.2 | 0.00 | 0.00 | 0.00 | 82 | 1017.1 |
| 20260506084259 | 14 | 234 | 0.0 | 3.2 | 0.00 | 0.00 | 0.00 | 82 | 1017.2 |
| 20260506083803 | 14 | 235 | 1.6 | 3.2 | 0.00 | 0.00 | 0.00 | 82 | 1017.2 |
| 20260506083246 | 13 | 221 | 1.6 | 4.8 | 0.00 | 0.00 | 0.00 | 82 | 1017.2 |
| 20260506082750 | 13 | 239 | 1.6 | 4.8 | 0.00 | 0.00 | 0.00 | 82 | 1017.1 |
| 20260506082258 | 13 | 252 | 0.0 | 1.6 | 0.00 | 0.00 | 0.00 | 82 | 1017.1 |
| 20260506081805 | 13 | 233 | 1.6 | 3.2 | 0.00 | 0.00 | 0.00 | 82 | 1017.1 |
| 20260506081310 | 13 | 250 | 1.6 | 3.2 | 0.00 | 0.00 | 0.00 | 82 | 1017.2 |
| 20260506080755 | 13 | 219 | 0.0 | 3.2 | 0.00 | 0.00 | 0.00 | 81 | 1017.2 |
| 20260506080257 | 13 | 218 | 0.0 | 1.6 | 0.00 | 0.00 | 0.00 | 81 | 1017.2 |
| 20260506073253 | 13 | 197 | 0.0 | 0.0 | 0.00 | 0.00 | 0.00 | 81 | 1017.2 |
| 20260506072755 | 13 | 197 | 0.0 | 0.0 | 0.00 | 0.00 | 0.00 | 81 | 1017.1 |
| 20260506072317 | 13 | 197 | 0.0 | 0.0 | 0.00 | 0.00 | 0.00 | 80 | 1017.1 |
| 20260506071803 | 13 | 197 | 0.0 | 0.0 | 0.00 | 0.00 | 0.00 | 80 | 1017.1 |
| 20260506071248 | 14 | 197 | 0.0 | 0.0 | 0.00 | 0.00 | 0.00 | 80 | 1017.1 |
| 20260506070750 | 14 | 197 | 0.0 | 0.0 | 0.00 | 0.00 | 0.00 | 80 | 1017.1 |
| 20260506070255 | 14 | 199 | 0.0 | 3.2 | 0.00 | 0.00 | 0.00 | 79 | 1017.1 |
| 20260506062256 | 15 | 207 | 1.6 | 1.6 | 0.00 | 0.00 | 0.00 | 79 | 1016.7 |
| 20260506061756 | 15 | 216 | 0.0 | 1.6 | 0.00 | 0.00 | 0.00 | 79 | 1016.7 |
| 20260506061303 | 15 | 216 | 0.0 | 3.2 | 0.00 | 0.00 | 0.00 | 79 | 1016.7 |
| 20260506060805 | 15 | 216 | 0.0 | 3.2 | 0.00 | 0.00 | 0.00 | 79 | 1016.7 |
| 20260506060310 | 15 | 215 | 1.6 | 1.6 | 0.00 | 0.00 | 0.00 | 79 | 1016.7 |
| 20260506051301 | 15 | 221 | 1.6 | 6.4 | 0.00 | 0.00 | 0.00 | 79 | 1016.2 |
| 20260506050804 | 15 | 228 | 1.6 | 8.0 | 0.00 | 0.00 | 0.00 | 79 | 1016.2 |
| 20260506050249 | 15 | 225 | 4.8 | 8.0 | 0.00 | 0.00 | 0.00 | 79 | 1016.2 |
| 20260506044805 | 15 | 207 | 1.6 | 4.8 | 0.00 | 0.00 | 0.00 | 78 | 1016.1 |
| 20260506044249 | 15 | 202 | 1.6 | 3.2 | 0.00 | 0.00 | 0.00 | 78 | 1015.9 |
| 20260506043802 | 15 | 200 | 1.6 | 3.2 | 0.00 | 0.00 | 0.00 | 78 | 1015.9 |
| 20260506043309 | 15 | 196 | 1.6 | 3.2 | 0.00 | 0.00 | 0.00 | 78 | 1015.9 |
| 20260506042753 | 15 | 208 | 1.6 | 3.2 | 0.00 | 0.00 | 0.00 | 77 | 1015.8 |
| 20260506042256 | 15 | 215 | 1.6 | 4.8 | 0.00 | 0.00 | 0.00 | 77 | 1015.8 |
| 20260506041744 | 15 | 225 | 3.2 | 4.8 | 0.00 | 0.00 | 0.00 | 76 | 1015.8 |
| 20260506041249 | 15 | 221 | 1.6 | 4.8 | 0.00 | 0.00 | 0.00 | 76 | 1015.6 |
| 20260506040756 | 15 | 235 | 3.2 | 4.8 | 0.00 | 0.00 | 0.00 | 75 | 1015.6 |
| 20260506040259 | 16 | 222 | 3.2 | 4.8 | 0.00 | 0.00 | 0.00 | 74 | 1015.6 |
| 20260506035802 | 15 | 254 | 3.2 | 4.8 | 0.00 | 0.00 | 0.00 | 73 | 1015.4 |
| 20260506035307 | 15 | 203 | 1.6 | 3.2 | 0.00 | 0.00 | 0.00 | 74 | 1015.4 |
| 20260506034748 | 16 | 248 | 1.6 | 4.8 | 0.00 | 0.00 | 0.00 | 74 | 1015.4 |
| 20260506034316 | 15 | 267 | 1.6 | 4.8 | 0.00 | 0.00 | 0.00 | 74 | 1015.1 |
| 20260506033759 | 15 | 234 | 1.6 | 4.8 | 0.00 | 0.00 | 0.00 | 74 | 1015.1 |